COSMOS 1375 DEB, 16376

Orbit data source: Space-Track

COSMOS 1375 DEB, 16376 is space debris in LEO originally from a launch on Sun, 06 Jun 1982 UTC launched from the Plesetsk Missile And Space Complex (PKMTR). Debris objects in space refer to the collection of defunct objects orbiting the Earth. Examples of debris include non-operational satellites, rocket bodies, and fragments generated from explosions, collisions, or faulty payload assembly.

Loading next visibility...
Identifier
16376, 1982-055Q
Orbit
LEO
Country
Flag of CISCIS
Related business
Manufacturer
Unknown
Mission
Spacecraft
Bus & Motor
Unknown
Mass
Unknown
Launch date (UTC)
1982-06-06 (44 years ago)
Launch vehicle
Unknown
Launch site
Plesetsk Missile And Space Complex (PKMTR)
Object type
Payload
Rocket body
Debris
Shape & HBR
Unknown shape, 0.1 m
Radar Cross Section
Medium (>0.1 m² and <1 m²)

Expand to show TLE details & history
Last TLE update: 3 days ago

TLE from 3 days ago
0 COSMOS 1375 DEB
1 16376U 82055Q   26171.35364191  .00000403  00000-0  35202-3 0  9994
2 16376  65.8274 297.4740 0013507  27.6637   3.6422 13.96575099 60374
Epoch: 2026-06-20T08:29Z
TLE epoch observation values (Epoch: 2026-06-20T08:29:14.661Z)
Latitude
28.3661°
Longitude
-84.45667°
Altitude
898.452 km
Speed
7.411 km/s
True Right ascension
20h 45m 41s
True Declination
28° 13' 31"
Sunlit
Object was in daylight at epoch
Visualization orbit readout
Latitude
Unknown
Longitude
Unknown
Altitude
Unknown
Speed
Unknown
Apparent Right ascension
Unknown
Apparent Declination
Unknown
Sunlit
N/A
Visualization observer readout
Local Sidereal Time
08:23:59
Azimuth
Unknown
Elevation
Unknown
Doppler factor
Unknown
Orbital elements
Apogee altitude
914.018 km
Perigee altitude
894.345 km
Semi-major axis
7,282.318 km
Eccentricity
0.00135
Inclination
65.8274°
RAAN
297.474°
Arg. of periapsis
27.6637°
True anomaly
3.65205°
Mean anomaly
3.6422°
Eccentric anomaly
3.64712°
Mean motion
3.49252 °/min
Orbital period
103.08 mins
BSTAR
0.00035202
Loading maneuver chart data...
Computing Atmospheric mass density...
Loading historical data...
Loading historical data...
Loading historical data...
Loading historical data...
Loading historical data...
Loading historical data...
Loading historical data...

Documentation

Showing up to 5 results
|